DateTimeUTC,F1_A11,F1_S11,BsB_S11,BsG_S11,BsR_S11,BbsB_S11,BbsG_S11,BbsR_S11,BaB_A11,BaG_A11,BaR_A11,Tu_S11,T_S11,Uu_S11,U_S11,P_S11,T1_A11
2021-07-03T14:00:00Z,00000200,20000000,,,,,,,-000.03,-000.14,0000.01,19.1,25.6,07.4,05.0,0672.9,31.1
2021-07-03T14:01:00Z,00000200,20000000,,,,,,,-000.03,0000.04,-000.07,19.0,25.6,07.5,05.0,0672.9,31.1
2021-07-03T14:02:00Z,00000200,20000000,,,,,,,-000.14,-000.18,0000.04,19.0,25.6,07.5,05.0,0672.8,31.1
2021-07-03T14:03:00Z,00000200,60000000,,,,,,,0000.39,0000.12,0000.11,19.0,25.6,07.5,05.0,0672.8,31.1
2021-07-03T14:04:00Z,00000200,40000000,0001.37,0000.40,0000.09,0000.39,0000.28,-000.12,-000.30,0000.27,0000.12,19.1,25.4,07.3,05.0,0673.7,31.1
2021-07-03T14:05:00Z,00000200,00000000,0000.25,0000.47,-000.02,0000.43,0000.27,0000.23,0000.64,-000.11,0000.20,19.1,25.4,07.3,05.0,0673.9,31.1
2021-07-03T14:06:00Z,00000200,00000000,0000.81,0000.42,-000.04,0000.27,0000.25,-000.11,-000.10,0000.19,-000.48,19.1,25.4,07.5,05.1,0673.9,31.1
2021-07-03T14:07:00Z,00000200,00000000,0000.85,0000.28,0000.22,0000.44,0000.28,0000.09,0000.12,0000.05,0000.68,19.1,25.3,07.5,05.2,0673.9,31.1
2021-07-03T14:08:00Z,00000200,00000000,0000.93,0000.86,0000.11,0000.20,0000.47,0000.31,0000.20,0000.40,0000.25,19.2,25.3,07.5,05.2,0673.8,31.1
2021-07-03T14:09:00Z,00000200,00000000,0001.04,0000.78,0000.44,-000.36,0000.67,0000.17,-000.04,-000.19,-000.11,19.1,25.3,07.4,05.1,0673.9,31.2
2021-07-03T14:10:00Z,00000200,00000000,0000.80,0000.48,0000.22,-000.05,0000.30,0000.11,0000.55,0000.39,0000.16,19.2,25.3,07.7,05.3,0673.9,31.1
2021-07-03T14:11:00Z,00000200,00000000,0000.51,0000.39,0000.35,0000.85,0000.40,0000.25,-000.32,-000.10,-000.02,19.2,25.3,07.7,05.3,0673.8,31.1
2021-07-03T14:12:00Z,00000200,00000000,0001.04,0000.71,0000.39,0000.61,0000.12,0000.21,-000.01,0000.16,-000.05,19.2,25.3,07.5,05.2,0673.8,31.1
2021-07-03T14:13:00Z,00000200,00000000,0001.48,0000.70,0000.35,0000.08,0000.04,0000.28,0000.16,0000.38,0000.32,19.2,25.3,07.6,05.2,0673.9,31.1
2021-07-03T14:14:00Z,00000200,00000000,0000.76,0000.45,0000.33,0000.30,0000.40,0000.41,0000.67,-000.17,0000.07,19.2,25.3,07.7,05.3,0673.9,31.1
2021-07-03T14:15:00Z,00000200,00000000,0001.23,0000.71,0000.24,0000.49,0000.12,0000.01,-000.37,0000.03,0000.20,19.2,25.3,07.6,05.2,0673.9,31.1
2021-07-03T14:16:00Z,00000200,00000000,0000.93,0000.60,0000.08,0000.38,0000.32,0000.37,0000.47,0000.35,0000.04,19.2,25.3,07.7,05.3,0673.9,31.1
2021-07-03T14:17:00Z,00000200,00000000,0000.85,0000.59,0000.07,0000.13,0000.20,0000.00,-000.25,-000.08,-000.05,19.2,25.3,07.7,05.3,0673.9,31.1
2021-07-03T14:18:00Z,00000200,00000000,0000.61,0000.58,0000.17,0000.04,0000.42,0000.15,-000.03,0000.01,-000.07,19.2,25.3,07.7,05.3,0674.0,31.1
2021-07-03T14:19:00Z,00000200,00000000,0000.99,0000.48,0000.08,0000.23,0000.25,0000.07,0000.29,0000.23,0000.15,19.2,25.3,07.8,05.3,0674.0,31.1
2021-07-03T14:20:00Z,00000200,00000000,0000.72,0000.43,0000.22,0000.28,0000.23,0000.14,0000.20,-000.13,0000.18,19.2,25.3,07.8,05.4,0673.9,31.1
2021-07-03T14:21:00Z,00000200,00000000,0000.91,0000.58,0000.60,0000.55,-000.00,0000.27,-000.16,0000.08,0000.03,19.2,25.3,07.6,05.2,0673.9,31.1
2021-07-03T14:22:00Z,00000200,00000000,0001.11,0000.12,0000.25,0000.19,0000.10,0000.13,0000.25,0000.20,-000.08,19.2,25.3,07.6,05.2,0673.8,31.1
2021-07-03T14:23:00Z,00000200,00000000,0000.77,0000.44,0000.12,0000.45,0000.27,0000.27,0000.25,-000.09,0000.41,19.2,25.3,07.7,05.3,0673.9,31.1
2021-07-03T14:24:00Z,00000200,00000000,0000.67,0000.45,0000.31,-000.02,0000.10,0000.09,0000.02,0000.53,-000.32,19.2,25.3,07.6,05.2,0673.9,31.1
2021-07-03T14:25:00Z,00000200,00000000,0001.02,0000.36,0000.29,0000.45,0000.42,0000.07,-000.16,-000.17,0000.19,19.2,25.3,07.6,05.2,0673.9,31.1
2021-07-03T14:26:00Z,00000200,00000000,0000.83,0000.70,-000.10,0000.19,0000.36,-000.04,0000.52,-000.07,0000.15,19.2,25.3,07.6,05.2,0673.9,31.1
2021-07-03T14:27:00Z,00000200,00000000,0001.95,0000.28,0000.15,0000.69,-000.02,0000.04,0000.15,0000.43,0000.02,19.2,25.3,07.5,05.2,0673.9,31.1
2021-07-03T14:28:00Z,00000200,00000000,0000.74,0000.38,0000.28,0000.20,0000.27,0000.47,0000.10,-000.07,-000.05,19.2,25.3,07.8,05.3,0673.9,31.1
2021-07-03T14:29:00Z,00000200,00000000,0000.67,0000.90,0000.22,0000.16,0000.33,0000.23,0000.40,0000.46,0000.36,19.2,25.3,07.7,05.3,0673.9,31.1
2021-07-03T14:30:00Z,00000200,00000000,0000.80,0000.43,0000.24,0000.22,-000.04,-000.14,-000.40,0000.18,0000.07,19.2,25.3,07.8,05.4,0673.9,31.1
2021-07-03T14:31:00Z,00000200,00000000,0000.27,0000.62,0000.11,0000.37,0000.16,-000.13,0000.17,-000.19,0000.29,19.2,25.3,07.8,05.4,0674.0,31.1
2021-07-03T14:32:00Z,00000200,00000000,0000.89,0000.74,0000.31,-000.12,0000.10,0000.19,0000.05,0000.11,0000.06,19.2,25.3,07.8,05.4,0673.8,31.1
2021-07-03T14:33:00Z,00000200,00000000,0000.91,0000.62,-000.09,0000.40,0000.17,0000.05,0000.65,0000.13,0000.06,19.2,25.3,07.8,05.4,0673.8,31.1
2021-07-03T14:34:00Z,00000200,00000000,0001.13,0000.06,0000.41,0000.63,0000.35,-000.19,-000.48,0000.31,-000.12,19.2,25.3,07.8,05.4,0673.8,31.1
2021-07-03T14:35:00Z,00000200,00000000,0001.12,0000.55,0000.33,-000.07,0000.26,0000.06,0000.51,-000.10,-000.10,19.2,25.3,07.9,05.4,0673.9,31.1
2021-07-03T14:36:00Z,00000200,00000000,0000.45,0000.94,0000.51,-000.25,0000.19,0000.19,-000.09,-000.00,0000.40,19.2,25.3,07.8,05.3,0673.8,31.1
2021-07-03T14:37:00Z,00000200,00000000,0000.84,0000.43,0000.20,0000.24,0000.38,0000.04,-000.04,0000.45,-000.01,19.2,25.3,07.8,05.4,0673.8,31.1
2021-07-03T14:38:00Z,00000200,00000000,0000.95,0000.52,0000.39,0000.43,0000.44,0000.32,0000.25,-000.26,0000.06,19.2,25.3,07.8,05.4,0673.8,31.2
2021-07-03T14:39:00Z,00000200,00000000,0001.11,0000.59,0000.38,0000.20,0000.21,0000.17,0000.35,0000.42,0000.22,19.3,25.4,07.8,05.4,0673.9,31.1
2021-07-03T14:40:00Z,00000200,00000000,0000.85,0000.75,0000.26,0000.24,0000.25,0000.20,-000.11,0000.11,0000.06,19.3,25.4,07.8,05.4,0673.9,31.2
2021-07-03T14:41:00Z,00000200,00000000,0001.25,0000.70,0000.06,0000.84,0000.06,0000.27,0000.06,-000.44,-000.27,19.3,25.4,07.9,05.5,0673.9,31.1
2021-07-03T14:42:00Z,00000200,00000000,0001.44,0000.73,-000.06,0000.09,0000.08,-000.03,-000.19,0000.10,0000.20,19.3,25.4,07.8,05.4,0673.7,31.2
2021-07-03T14:43:00Z,00000200,00000000,0000.57,0000.49,0000.43,0000.39,0000.43,0000.19,0000.43,0000.59,0000.23,19.3,25.4,07.7,05.4,0673.8,31.1
2021-07-03T14:44:00Z,00000200,00000000,0001.25,0000.51,0000.42,0000.62,0000.26,-000.08,0000.03,-000.27,-000.19,19.3,25.4,07.9,05.5,0673.8,31.2
2021-07-03T14:45:00Z,00000200,00000000,0001.33,0000.60,0000.57,-000.02,0000.23,0000.23,0000.39,0000.47,0000.34,19.3,25.4,07.8,05.4,0673.8,31.2
2021-07-03T14:46:00Z,00000200,00000000,0000.43,0000.49,0000.07,-000.49,0000.26,-000.11,0000.02,0000.09,0000.26,19.3,25.4,07.8,05.4,0673.9,31.1
2021-07-03T14:47:00Z,00000200,00000000,0000.92,0000.75,-000.02,0000.21,0000.23,0000.22,0000.38,0000.10,0000.20,19.3,25.4,07.9,05.5,0673.9,31.1
2021-07-03T14:48:00Z,00000200,00000000,0001.29,0000.91,-000.01,0000.39,0000.33,0000.18,-000.10,0000.13,-000.16,19.3,25.4,07.8,05.4,0673.8,31.1
2021-07-03T14:49:00Z,00000200,00000000,0001.21,0000.85,-000.00,0000.21,0000.16,-000.00,0000.25,-000.04,0000.06,19.3,25.4,07.9,05.5,0673.9,31.1
2021-07-03T14:50:00Z,00000200,00000000,0001.40,0000.84,0000.33,0000.51,0000.23,0000.05,-000.15,0000.23,0000.09,19.3,25.4,07.9,05.5,0673.8,31.1
2021-07-03T14:51:00Z,00000200,00000000,0001.08,0000.77,0000.37,0000.42,0000.05,0000.25,0000.01,-000.09,0000.03,19.3,25.4,07.9,05.4,0673.8,31.1
2021-07-03T14:52:00Z,00000200,00000000,0000.94,0000.76,0000.39,0000.73,0000.26,0000.16,0000.09,-000.11,0000.32,19.3,25.4,07.9,05.5,0673.7,31.1
2021-07-03T14:53:00Z,00000200,00000000,0001.19,0000.32,0000.21,0000.04,0000.12,0000.20,0000.41,0000.72,-000.21,19.3,25.4,08.0,05.5,0673.8,31.1
2021-07-03T14:54:00Z,00000200,00000000,0001.69,0000.66,0000.32,0000.27,0000.08,0000.01,0000.04,-000.01,0000.41,19.3,25.4,08.1,05.6,0673.8,31.1
2021-07-03T14:55:00Z,00000200,00000000,0000.68,0000.41,0000.41,0000.38,0000.34,0000.03,0000.23,-000.03,0000.18,19.3,25.3,08.2,05.7,0673.8,31.1
2021-07-03T14:56:00Z,00000200,00000000,0000.99,0000.48,-000.06,-000.38,0000.01,0000.03,0000.20,0000.37,-000.11,19.3,25.3,08.1,05.6,0673.7,31.1
2021-07-03T14:57:00Z,00000200,40000000,,,,,,,-000.30,-000.15,0000.17,19.3,25.4,08.3,05.7,0673.9,31.1
2021-07-03T14:58:00Z,00000200,60000000,,,,,,,0000.07,-000.01,-000.03,19.1,25.5,08.1,05.4,0672.8,31.1
2021-07-03T14:59:00Z,00000200,20000000,,,,,,,-000.01,-000.15,-000.12,19.1,25.6,08.1,05.5,0672.7,31.1
